STARLINK-1935

Last updated on Tue Nov 24 2020 00:02:02 GMT+0000 (Coordinated Universal Time)

1 46771U 20074AJ 20328.58334491 -.01089643 00000-0 -18410-1 0 9998 2 46771 53.0551 13.5727 0001313 48.4892 298.9803 15.53789835 1806

Satellite not in orbit